Weather History for Norwood, MA

Change the Weather History Date:

Monday, March 25, 2013

  Actual Average Record
Temperature  
Mean Temperature 37 °F -  
Max Temperature 45 °F 48 °F 54 °F (2004)
Min Temperature 30 °F 31 °F 12 °F (2014)
Degree Days  
Heating Degree Days 28    
Moisture  
Dew Point 31 °F    
Average Humidity 75    
Maximum Humidity 86    
Minimum Humidity 68    
Precipitation  
Precipitation 0.00 in - - ()
Sea Level Pressure  
Sea Level Pressure 29.62 in    
Wind  
Wind Speed 6 mph (NE)    
Max Wind Speed 15 mph    
Max Gust Speed 29 mph    
Visibility 10 miles    
Events      
Averages and records for this station are not official NWS values.
T = Trace of Precipitation, MM = Missing Value Source: NWS Daily Summary

Daily Weather History Graph

Daily Weather History Graph

Search for Another Location

Airport:

Trip Planner

Search our weather history database for the weather conditions in past years. The results will help you decide how hot, cold, wet, or windy it might be!

Date:

Astronomy

Mar. 25, 2013 Rise Set
Actual Time 6:38 AM EDT 7:02 PM EDT
Civil Twilight 6:10 AM EDT 7:30 PM EDT
Nautical Twilight 5:37 AM EDT 8:03 PM EDT
Astronomical Twilight 5:04 AM EDT 8:37 PM EDT
Moon 5:30 PM EDT (3/25) 5:22 AM EDT (3/25)
Length of Visible Light 13h 19m
Length of Day
12h 23m
Waxing Gibbous, 96% of the Moon is Illuminated
Mar 25
Waxing Gibbous
Mar 27
Full
Apr 3
Last Quarter
Apr 10
New
Apr 18
First Quarter

Hourly Weather History & Observations

Time (EDT) Temp. Windchill Dew Point Humidity Pressure Visibility Wind Dir Wind Speed Gust Speed Precip Events Conditions
12:53 AM 36.0 °F - 27.0 °F 70% 29.76 in 10.0 mi Calm Calm - N/A   Overcast
1:53 AM 32.0 °F - 28.0 °F 85% 29.75 in 10.0 mi Calm Calm - N/A   Clear
2:53 AM 32.0 °F - 27.0 °F 82% 29.75 in 10.0 mi Calm Calm - N/A   Clear
3:53 AM 30.9 °F - 27.0 °F 85% 29.73 in 10.0 mi Calm Calm - N/A   Clear
4:53 AM 32.0 °F - 27.0 °F 82% 29.71 in 10.0 mi Calm Calm - N/A   Clear
5:53 AM 33.1 °F - 28.0 °F 82% 29.70 in 10.0 mi Calm Calm - N/A   Clear
6:53 AM 34.0 °F - 25.0 °F 70% 29.70 in 10.0 mi Calm Calm - N/A   Clear
7:53 AM 35.1 °F - 28.0 °F 76% 29.70 in 10.0 mi Calm Calm - N/A   Clear
8:53 AM 39.0 °F 34.8 °F 30.9 °F 73% 29.70 in 10.0 mi NE 5.8 mph - N/A   Clear
9:17 AM 39.2 °F 33.0 °F 32.0 °F 75% 29.69 in 10.0 mi NNE 9.2 mph - N/A   Mostly Cloudy
9:53 AM 41.0 °F 33.9 °F 33.1 °F 73% 29.68 in 10.0 mi NE 12.7 mph 18.4 mph N/A   Mostly Cloudy
10:09 AM 41.0 °F 35.2 °F 33.8 °F 76% 29.66 in 10.0 mi NE 9.2 mph - N/A   Scattered Clouds
10:18 AM 41.0 °F 34.3 °F 33.8 °F 76% 29.66 in 10.0 mi NE 11.5 mph 17.3 mph N/A   Mostly Cloudy
10:53 AM 42.1 °F 36.1 °F 34.0 °F 73% 29.66 in 10.0 mi ENE 10.4 mph 18.4 mph N/A   Mostly Cloudy
11:53 AM 43.0 °F 37.2 °F 35.1 °F 74% 29.65 in 10.0 mi NE 10.4 mph 19.6 mph N/A   Mostly Cloudy
12:15 PM 42.8 °F 36.6 °F 33.8 °F 70% 29.63 in 10.0 mi NE 11.5 mph 20.7 mph N/A   Mostly Cloudy
12:53 PM 44.1 °F 38.1 °F 34.0 °F 68% 29.62 in 10.0 mi ENE 11.5 mph 17.3 mph N/A   Overcast
1:53 PM 43.0 °F 35.7 °F 33.1 °F 68% 29.60 in 10.0 mi ENE 15.0 mph 23.0 mph N/A   Overcast
2:53 PM 41.0 °F 33.5 °F 34.0 °F 76% 29.57 in 10.0 mi ENE 13.8 mph 25.3 mph N/A   Overcast
3:53 PM 41.0 °F 33.9 °F 35.1 °F 79% 29.52 in 10.0 mi NE 12.7 mph 21.9 mph N/A   Overcast
4:53 PM 37.9 °F 32.7 °F 34.0 °F 86% 29.52 in 10.0 mi NE 6.9 mph 19.6 mph 0.00 in   Overcast
5:53 PM 39.0 °F 30.6 °F 33.1 °F 79% 29.52 in 10.0 mi NNE 15.0 mph 24.2 mph N/A   Overcast
6:12 PM 39.2 °F 30.8 °F 32.0 °F 75% 29.52 in 10.0 mi NE 15.0 mph 24.2 mph N/A   Mostly Cloudy
6:19 PM 39.2 °F 33.0 °F 32.0 °F 75% 29.52 in 10.0 mi NE 9.2 mph 21.9 mph N/A   Mostly Cloudy
6:53 PM 39.0 °F 30.6 °F 32.0 °F 76% 29.53 in 10.0 mi NE 15.0 mph 28.8 mph N/A   Mostly Cloudy
7:53 PM 39.0 °F 31.0 °F 32.0 °F 76% 29.54 in 10.0 mi NE 13.8 mph 25.3 mph 0.00 in   Mostly Cloudy
8:53 PM 39.0 °F 30.6 °F 30.9 °F 73% 29.55 in 10.0 mi NE 15.0 mph 21.9 mph N/A   Overcast
9:08 PM 39.2 °F 31.2 °F 30.2 °F 70% 29.54 in 10.0 mi NNE 13.8 mph 21.9 mph N/A   Overcast
9:53 PM 39.0 °F 32.3 °F 30.9 °F 73% 29.54 in 10.0 mi NNE 10.4 mph 17.3 mph N/A   Overcast
10:53 PM 39.0 °F 33.4 °F 30.0 °F 70% 29.53 in 10.0 mi NNE 8.1 mph - N/A   Overcast
11:32 PM 39.2 °F 33.6 °F 30.2 °F 70% 29.52 in 10.0 mi North 8.1 mph 16.1 mph N/A   Overcast
11:53 PM 37.9 °F 30.9 °F 30.9 °F 76% 29.52 in 10.0 mi North 10.4 mph 17.3 mph N/A   Overcast